Location: Marse
(42.1502°N, 110.9866°W)
Time: 06:44:03
(UTC+00:00)

ITUPSAT 1 - Pass Details

Date: 30 June 2022
Orbit: 701 x 711 km, 98.6° (Epoch: 07 August)

Event Time Altitude Azimuth Distance (km) Brightness Sun altitude
Rises 05:17:40 0° 355° (N) 3,108 ? -18.1°
Reaches altitude 10° 05:20:50 10° 332° (NNW) 2,186 ? -18.4°
Maximum altitude 05:23:27 15° 299° (WNW) 1,877 ? -18.7°
Drops below altitude 10° 05:26:02 10° 266° (W) 2,182 ? -18.9°
Sets 05:29:13 0° 243° (WSW) 3,098 ? -19.2°
